Rochester/St. Mary\'s Hospita, MN

3:39 PM CST on December 12, 2019 (GMT -0600)
Rochester/St. Mary\'s Hospita

Weather History for K9MN - October, 2019

Change the Weather History Date:

Tuesday, October 15, 2019

  Actual Average (WUND) Record (WUND)
Temperature  
Mean Temperature 46 °F -  
Max Temperature 49 °F - - (-1)
Min Temperature 42 °F - - (-1)
Degree Days  
Heating Degree Days 20    
Moisture  
Dew Point 38 °F    
Average Humidity 75    
Maximum Humidity 84    
Minimum Humidity 61    
Precipitation  
Precipitation 0.00 in - - ()
Sea Level Pressure  
Sea Level Pressure 29.83 in    
Wind  
Wind Speed 9 mph (WNW)    
Max Wind Speed 21 mph    
Max Gust Speed 31 mph    
Visibility 10 miles    
Events      
Averages and records for this station are not official NWS values.
T = Trace of Precipitation, MM = Missing Value Source: NWS Daily Summary

Daily Weather History Graph

Daily Weather History Graph

Search for Another Location

Airport or City:

Astronomy

Oct. 15, 2019 Rise Set
Actual Time 7:24 AM CDT 6:26 PM CDT
Civil Twilight 6:55 AM CDT 6:55 PM CDT
Nautical Twilight 6:21 AM CDT 7:28 PM CDT
Astronomical Twilight 5:48 AM CDT 8:02 PM CDT
Moon 7:44 PM CDT (10/15) 8:57 AM CDT (10/15)
Length of Visible Light 12h 00m
Length of Day
11h 02m
Full, 97% of the Moon is Illuminated
Oct 15
Full
Oct 21
Last Quarter
Oct 27
New
Nov 4
First Quarter
Nov 12
Full

Hourly Weather History & Observations

Time (CDT) Temp. Windchill Dew Point Humidity Pressure Visibility Wind Dir Wind Speed Gust Speed Precip Events Conditions
12:15 AM 42.8 °F 39.3 °F 35.1 °F 74% 29.90 in 10.0 mi ESE 5.8 mph - N/A   Overcast
12:16 AM 42.8 °F 39.3 °F 35.1 °F 74% 29.90 in 10.0 mi ESE 5.8 mph - N/A   Overcast
12:35 AM 42.3 °F 37.3 °F 35.2 °F 76% 29.88 in 10.0 mi ESE 8.1 mph - N/A   Mostly Cloudy
12:36 AM 42.3 °F 37.3 °F 35.2 °F 76% 29.88 in 10.0 mi ESE 8.1 mph - N/A   Mostly Cloudy
12:55 AM 42.3 °F 37.3 °F 35.2 °F 76% 29.87 in 10.0 mi ESE 8.1 mph - N/A   Scattered Clouds
1:15 AM 42.1 °F 37.1 °F 35.6 °F 78% 29.86 in 10.0 mi ESE 8.1 mph - N/A   Scattered Clouds
1:35 AM 42.3 °F 37.3 °F 35.6 °F 77% 29.86 in 10.0 mi ESE 8.1 mph - N/A   Scattered Clouds
1:36 AM 42.3 °F 37.3 °F 35.6 °F 77% 29.86 in 10.0 mi ESE 8.1 mph - N/A   Scattered Clouds
1:55 AM 42.4 °F 38.1 °F 35.6 °F 77% 29.84 in 10.0 mi ESE 6.9 mph - N/A   Clear
1:56 AM 42.4 °F 38.1 °F 35.6 °F 77% 29.84 in 10.0 mi ESE 6.9 mph - N/A   Clear
2:15 AM 42.4 °F 37.5 °F 35.6 °F 77% 29.83 in 10.0 mi ESE 8.1 mph - N/A   Scattered Clouds
2:35 AM 42.6 °F 37.2 °F 35.8 °F 77% 29.82 in 10.0 mi ESE 9.2 mph - N/A   Scattered Clouds
2:36 AM 42.4 °F 37.0 °F 35.8 °F 77% 29.82 in 10.0 mi ESE 9.2 mph - N/A   Scattered Clouds
2:55 AM 42.8 °F 37.5 °F 36.7 °F 79% 29.80 in 10.0 mi ESE 9.2 mph - N/A   Mostly Cloudy
2:56 AM 42.8 °F 37.5 °F 36.7 °F 79% 29.80 in 10.0 mi ESE 9.2 mph - N/A   Overcast
3:15 AM 43.3 °F 38.1 °F 37.4 °F 80% 29.78 in 10.0 mi ESE 9.2 mph - N/A   Mostly Cloudy
3:35 AM 45.3 °F 40.6 °F 37.4 °F 74% 29.77 in 10.0 mi SE 9.2 mph - N/A   Scattered Clouds
3:55 AM 46.6 °F - 37.0 °F 69% 29.75 in 10.0 mi SE 10.4 mph - N/A   Scattered Clouds
3:56 AM 46.6 °F - 37.0 °F 69% 29.75 in 10.0 mi SE 10.4 mph - N/A   Scattered Clouds
4:15 AM 47.5 °F - 37.0 °F 67% 29.75 in 10.0 mi SE 13.8 mph 17.3 mph N/A   Clear
4:16 AM 47.5 °F - 37.0 °F 67% 29.75 in 10.0 mi SE 11.5 mph 17.3 mph N/A   Clear
4:35 AM 47.7 °F - 37.0 °F 67% 29.74 in 10.0 mi SE 11.5 mph 17.3 mph N/A   Clear
4:36 AM 47.7 °F - 37.0 °F 67% 29.74 in 10.0 mi SE 11.5 mph 17.3 mph N/A   Clear
4:55 AM 47.3 °F - 37.2 °F 68% 29.74 in 10.0 mi SE 9.2 mph 16.1 mph N/A   Scattered Clouds
5:15 AM 47.3 °F - 37.4 °F 68% 29.75 in 10.0 mi South 5.8 mph - N/A   Scattered Clouds
5:16 AM 47.3 °F - 37.4 °F 68% 29.75 in 10.0 mi South 6.9 mph - N/A   Scattered Clouds
5:35 AM 46.6 °F - 37.4 °F 70% 29.74 in 10.0 mi SSE 9.2 mph - N/A   Scattered Clouds
5:36 AM 46.6 °F - 37.4 °F 70% 29.74 in 10.0 mi SSE 9.2 mph - N/A   Scattered Clouds
5:55 AM 46.0 °F 41.9 °F 37.4 °F 72% 29.74 in 10.0 mi SSE 8.1 mph - N/A   Clear
6:15 AM 46.0 °F - 37.6 °F 72% 29.75 in 10.0 mi Calm Calm - N/A   Clear
6:35 AM 45.7 °F - 37.6 °F 73% 29.74 in 10.0 mi Calm Calm - N/A   Clear
6:36 AM 45.7 °F - 37.6 °F 73% 29.74 in 10.0 mi Calm Calm - N/A   Clear
6:55 AM 45.1 °F - 37.4 °F 74% 29.74 in 10.0 mi Calm Calm - N/A   Clear
6:56 AM 45.1 °F - 37.4 °F 74% 29.74 in 10.0 mi Calm Calm - N/A   Clear
7:15 AM 45.3 °F - 37.4 °F 74% 29.74 in 10.0 mi Calm Calm - N/A   Scattered Clouds
7:16 AM 45.3 °F - 37.4 °F 74% 29.74 in 10.0 mi Calm Calm - N/A   Scattered Clouds
7:35 AM 44.8 °F - 37.6 °F 76% 29.74 in 10.0 mi Calm Calm - N/A   Scattered Clouds
7:55 AM 45.9 °F 44.6 °F 38.3 °F 75% 29.74 in 10.0 mi SW 3.5 mph - N/A   Clear
8:15 AM 46.4 °F - 38.3 °F 73% 29.72 in 10.0 mi Calm Calm - N/A   Clear
8:16 AM 46.4 °F - 38.5 °F 74% 29.72 in 10.0 mi Calm Calm - N/A   Clear
8:35 AM 45.9 °F 43.6 °F 39.2 °F 78% 29.74 in 10.0 mi WSW 4.6 mph - N/A   Clear
8:36 AM 45.9 °F 44.6 °F 39.2 °F 78% 29.74 in 10.0 mi West 3.5 mph - N/A   Clear
8:55 AM 45.1 °F 42.8 °F 38.8 °F 79% 29.72 in 10.0 mi West 4.6 mph - N/A   Scattered Clouds
9:15 AM 45.1 °F 41.4 °F 39.2 °F 80% 29.74 in 10.0 mi WSW 6.9 mph - N/A   Scattered Clouds
9:35 AM 45.0 °F 41.2 °F 39.2 °F 80% 29.75 in 10.0 mi WSW 6.9 mph - N/A   Scattered Clouds
9:36 AM 45.0 °F 40.6 °F 39.2 °F 80% 29.75 in 10.0 mi West 8.1 mph - N/A   Scattered Clouds
9:55 AM 45.5 °F 40.3 °F 39.7 °F 80% 29.75 in 10.0 mi West 10.4 mph - N/A   Scattered Clouds
9:56 AM 45.5 °F 40.8 °F 39.7 °F 80% 29.74 in 10.0 mi West 9.2 mph - N/A   Scattered Clouds
10:15 AM 46.4 °F 42.9 °F 39.9 °F 78% 29.75 in 10.0 mi WNW 6.9 mph - N/A   Scattered Clouds
10:35 AM 46.6 °F - 39.6 °F 77% 29.74 in 10.0 mi WNW 12.7 mph 19.6 mph N/A   Scattered Clouds
10:55 AM 46.6 °F - 39.0 °F 75% 29.75 in 10.0 mi WNW 11.5 mph 24.2 mph N/A   Scattered Clouds
10:56 AM 46.4 °F 41.1 °F 38.8 °F 75% 29.75 in 10.0 mi WNW 11.5 mph 24.2 mph N/A   Scattered Clouds
11:15 AM 46.2 °F 40.8 °F 39.2 °F 76% 29.76 in 10.0 mi WNW 11.5 mph 17.3 mph N/A   Mostly Cloudy
11:16 AM 46.0 °F 40.6 °F 39.2 °F 77% 29.76 in 10.0 mi WNW 11.5 mph 17.3 mph N/A   Mostly Cloudy
11:35 AM 46.2 °F 38.7 °F 39.2 °F 76% 29.76 in 10.0 mi WNW 19.6 mph 28.8 mph N/A   Mostly Cloudy
11:55 AM 46.4 °F 42.4 °F 39.7 °F 78% 29.78 in 10.0 mi West 8.1 mph 25.3 mph N/A   Mostly Cloudy
12:15 PM 45.9 °F 39.4 °F 39.4 °F 78% 29.79 in 10.0 mi WNW 15.0 mph 20.7 mph N/A   Overcast
12:16 PM 45.9 °F 39.4 °F 39.4 °F 78% 29.79 in 10.0 mi WNW 15.0 mph 20.7 mph N/A   Overcast
12:35 PM 46.0 °F 40.6 °F 39.7 °F 79% 29.80 in 10.0 mi WNW 11.5 mph 21.9 mph N/A   Overcast
12:36 PM 46.0 °F 40.2 °F 39.6 °F 78% 29.80 in 10.0 mi WNW 12.7 mph 21.9 mph N/A   Overcast
12:55 PM 45.5 °F 39.6 °F 39.7 °F 80% 29.81 in 10.0 mi WNW 12.7 mph 25.3 mph N/A   Overcast
1:15 PM 45.5 °F 39.9 °F 39.9 °F 81% 29.81 in 10.0 mi WNW 11.5 mph 18.4 mph N/A   Overcast
1:35 PM 45.7 °F 40.6 °F 40.1 °F 81% 29.81 in 10.0 mi WNW 10.4 mph 23.0 mph N/A   Overcast
1:36 PM 45.7 °F 40.6 °F 40.1 °F 81% 29.81 in 10.0 mi West 10.4 mph 23.0 mph N/A   Overcast
1:55 PM 46.0 °F 41.4 °F 40.1 °F 80% 29.81 in 10.0 mi WNW 9.2 mph 20.7 mph N/A   Overcast
1:56 PM 46.0 °F 41.4 °F 40.1 °F 80% 29.82 in 10.0 mi West 9.2 mph 20.7 mph N/A   Overcast
2:15 PM 47.3 °F - 40.1 °F 76% 29.82 in 10.0 mi NW 11.5 mph 19.6 mph N/A   Overcast
2:35 PM 48.2 °F - 39.6 °F 72% 29.81 in 10.0 mi WNW 13.8 mph 25.3 mph N/A   Overcast
2:55 PM 49.1 °F - 39.2 °F 69% 29.82 in 10.0 mi WNW 17.3 mph 29.9 mph N/A   Overcast
2:56 PM 49.1 °F - 39.0 °F 68% 29.82 in 10.0 mi WNW 20.7 mph 29.9 mph N/A   Overcast
3:15 PM 49.1 °F - 37.9 °F 65% 29.82 in 10.0 mi NW 16.1 mph 27.6 mph N/A   Overcast
3:16 PM 49.1 °F - 37.9 °F 65% 29.82 in 10.0 mi NW 17.3 mph 27.6 mph N/A   Overcast
3:35 PM 49.3 °F - 36.9 °F 62% 29.83 in 10.0 mi WNW 18.4 mph 29.9 mph N/A   Overcast
3:55 PM 49.5 °F - 36.5 °F 61% 29.84 in 10.0 mi WNW 17.3 mph 27.6 mph N/A   Overcast
4:15 PM 49.1 °F - 37.4 °F 64% 29.85 in 10.0 mi NW 13.8 mph 21.9 mph N/A   Overcast
4:16 PM 49.1 °F - 37.4 °F 64% 29.85 in 10.0 mi NW 15.0 mph 21.9 mph N/A   Overcast
4:35 PM 49.1 °F - 36.7 °F 62% 29.85 in 10.0 mi NW 12.7 mph 21.9 mph N/A   Overcast
4:36 PM 48.9 °F - 36.7 °F 63% 29.85 in 10.0 mi WNW 12.7 mph 21.9 mph N/A   Overcast
4:55 PM 48.7 °F - 35.8 °F 61% 29.86 in 10.0 mi WNW 15.0 mph 21.9 mph N/A   Overcast
5:15 PM 48.6 °F - 35.8 °F 61% 29.87 in 10.0 mi WNW 13.8 mph 21.9 mph N/A   Overcast
5:35 PM 48.4 °F - 36.5 °F 64% 29.87 in 10.0 mi WNW 15.0 mph 19.6 mph N/A   Overcast
5:55 PM 47.8 °F - 37.4 °F 67% 29.89 in 10.0 mi NW 15.0 mph 20.7 mph N/A   Overcast
5:56 PM 47.7 °F - 37.4 °F 68% 29.89 in 10.0 mi NW 13.8 mph 20.7 mph N/A   Overcast
6:35 PM 45.5 °F 39.6 °F 38.3 °F 76% 29.92 in 10.0 mi WNW 12.7 mph 19.6 mph N/A   Overcast
6:55 PM 45.1 °F 39.1 °F 38.3 °F 77% 29.92 in 10.0 mi NW 12.7 mph 16.1 mph N/A   Overcast
6:56 PM 45.1 °F 39.1 °F 38.3 °F 77% 29.92 in 10.0 mi NW 12.7 mph 16.1 mph N/A   Overcast
7:15 PM 45.0 °F 39.3 °F 38.3 °F 77% 29.93 in 10.0 mi NW 11.5 mph 21.9 mph N/A   Overcast
7:16 PM 45.0 °F 38.2 °F 38.3 °F 77% 29.93 in 10.0 mi NW 15.0 mph 23.0 mph N/A   Overcast
7:35 PM 44.6 °F 37.4 °F 37.0 °F 75% 29.93 in 10.0 mi WNW 16.1 mph 27.6 mph N/A   Overcast
7:36 PM 44.6 °F 37.8 °F 37.0 °F 75% 29.93 in 10.0 mi WNW 15.0 mph 27.6 mph N/A   Overcast
7:55 PM 44.1 °F 37.1 °F 37.0 °F 76% 29.94 in 10.0 mi WNW 15.0 mph 24.2 mph N/A   Overcast
8:15 PM 43.7 °F 37.3 °F 37.0 °F 77% 29.95 in 10.0 mi NW 12.7 mph 23.0 mph N/A   Overcast
8:16 PM 43.7 °F 37.7 °F 37.0 °F 77% 29.95 in 10.0 mi WNW 11.5 mph 23.0 mph N/A   Overcast
8:35 PM 43.7 °F 36.3 °F 37.2 °F 78% 29.95 in 10.0 mi WNW 16.1 mph 27.6 mph N/A   Overcast
8:36 PM 43.7 °F 36.6 °F 37.2 °F 78% 29.95 in 10.0 mi WNW 15.0 mph 27.6 mph N/A   Overcast
8:55 PM 43.7 °F 37.7 °F 37.6 °F 79% 29.96 in 10.0 mi WNW 11.5 mph 19.6 mph N/A   Overcast
9:15 PM 43.2 °F 35.6 °F 38.3 °F 83% 29.96 in 10.0 mi WNW 16.1 mph 19.6 mph N/A   Overcast
9:35 PM 43.0 °F 35.4 °F 38.3 °F 84% 29.96 in 10.0 mi WNW 16.1 mph - N/A   Overcast
9:36 PM 43.0 °F 36.0 °F 38.3 °F 84% 29.97 in 10.0 mi NW 13.8 mph 18.4 mph N/A   Overcast
9:55 PM 43.0 °F 35.1 °F 38.1 °F 83% 29.97 in 10.0 mi WNW 17.3 mph 23.0 mph N/A   Overcast
9:56 PM 43.0 °F 35.4 °F 38.1 °F 83% 29.97 in 10.0 mi WNW 16.1 mph 23.0 mph N/A   Overcast
10:15 PM 42.8 °F 37.5 °F 38.3 °F 84% 29.98 in 10.0 mi NW 9.2 mph - N/A   Overcast
10:35 PM 42.8 °F 37.0 °F 38.3 °F 84% 29.99 in 10.0 mi NW 10.4 mph 17.3 mph N/A   Overcast
10:55 PM 42.8 °F 36.6 °F 38.3 °F 84% 29.99 in 10.0 mi WNW 11.5 mph 19.6 mph N/A   Overcast
10:56 PM 42.8 °F 36.2 °F 38.3 °F 84% 29.99 in 10.0 mi NW 12.7 mph 17.3 mph N/A   Overcast
11:15 PM 42.6 °F 35.2 °F 37.9 °F 83% 29.99 in 10.0 mi WNW 15.0 mph 20.7 mph N/A   Overcast
11:16 PM 42.6 °F 34.9 °F 37.8 °F 83% 29.99 in 10.0 mi WNW 16.1 mph 20.7 mph N/A   Overcast
11:35 PM 42.6 °F 35.6 °F 36.5 °F 79% 30.00 in 10.0 mi NW 13.8 mph 31.1 mph N/A   Overcast
11:55 PM 42.4 °F 35.3 °F 35.8 °F 77% 30.00 in 10.0 mi NW 13.8 mph 20.7 mph N/A   Overcast